Regional Weather Roundup
Issued by NWS Charleston, SC

Current Version | Previous Version | Graphics & Text | Print | Product List | Glossary On
Versions: 1 2 3 4 5 6 7 8 9 10 11 12 13 14 15 16 17 18 19 20 21 22 23 24 25 26 27 28 29 30 31 32 33 34 35 36 37 38 39 40 41 42 43 44 45 46 47 48 49 50
000
ASUS42 KCHS 241310
RWRCHS
REGIONAL WEATHER ROUNDUP
NATIONAL WEATHER SERVICE CHARLESTON SC
800 AM EST WED DEC 24 2014

NOTE: "FAIR" INDICATES FEW OR NO CLOUDS BELOW 12,000 FEET WITH NO
SIGNIFICANT WEATHER AND/OR OBSTRUCTIONS TO VISIBILITY.

NOT ALL STATIONS ARE QUALITY CONTROLLED BY THE NATIONAL
WEATHER SERVICE. USE DATA WITH CAUTION...ESPECIALLY
DEWPOINT OBSERVATIONS.

SCZ027-030-031-034>040-042>050-241400-
...SOUTHEAST SOUTH CAROLINA...

CITY           SKY/WX    TMP DP  RH WIND       PRES   REMARKS
N CHARLESTON   HVY RAIN  68  66  93 SW8       29.82R FOG
WATERFRONT PRK   N/A     64 N/A N/A SW9         N/A
MOUNT PLEASANT HVY RAIN  68  68 100 S8        29.83R
PINOPOLIS        N/A     70  66  88 S7        29.71F
MONCKS CORNER  RAIN      70  66  88 S16G25    29.81S
SUMMERVILLE    LGT RAIN  68  68 100 S8G18     29.81S
BEAUFORT MCAS  LGT RAIN  68  67  96 S16G26    29.81S FOG
BEAUFORT ARPT  HVY RAIN  68  68 100 S10G18    29.81R
HILTON HEAD IS RAIN      66  66 100 S12G18    29.82S
WALTERBORO     HVY RAIN  68 N/A N/A S18G29    29.80S
ALLENDALE      LGT RAIN  68  66  94 S8G16     29.75S

...SOUTHERN MIDLANDS AND PEE DEE...

CITY           SKY/WX    TMP DP  RH WIND       PRES   REMARKS
GEORGETOWN     NOT AVBL
KINGSTREE      NOT AVBL
ORANGEBURG     HVY RAIN  62  60  93 VRB5      29.78S FOG
BARNWELL       DRIZZLE   63  63 100 SE6       29.76S
AIKEN          LGT RAIN  54  54 100 E9        29.77F
MANNING        CLOUDY    68 N/A N/A S7        29.78R
COLUMBIA       LGT RAIN  53  53 100 NW5       29.78R FOG
SUMTER         LGT RAIN  56  56  98 E2        29.78S FOG
FLORENCE       LGT RAIN  67  65  93 SW9       29.79R FOG
MYRTLE BEACH   CLOUDY    66  63  88 S16G24    29.83F FOG
N MYRTLE BEACH LGT RAIN  63  62  97 SW9       29.82F FOG

$$

GAZ063-065-086>088-099>101-113>116-118-119-134>141-150-241400-
...SOUTHEAST GEORGIA...

CITY           SKY/WX    TMP DP  RH WIND       PRES   REMARKS
SAVANNAH ARPT  CLOUDY    68  65  90 S14       29.79F
HUNTER AAF     CLOUDY    66  66 100 S10G25    29.77F
FORT STEWART   CLOUDY    68  66  94 S7        29.76S
STATESBORO     CLOUDY    67  67 100 S12       29.75S
SYLVANIA       CLOUDY    68  68 100 S8        29.76S
CLAXTON        LGT RAIN  68  68 100 S9        29.76S

...CSRA...CENTRAL AND FAR SOUTHEAST GEORGIA...

CITY           SKY/WX    TMP DP  RH WIND       PRES   REMARKS
THOMSON        CLOUDY    56  56 100 CALM      29.78F
AUGUSTA-BUSH   RAIN      59  58  96 SE3       29.72F
AUGUSTA-DANIEL RAIN      57  56  96 NW13      29.75R FOG
SWAINSBORO     RAIN     N/A N/A N/A S14       29.73S
VIDALIA        CLOUDY    68  68 100 S12G17    29.74S
EASTMAN        CLOUDY    65  65 100 NE3       29.75R
HAZLEHURST     TSTM      70  70  99 S10G18    29.73R
ALMA           CLOUDY    69  66  90 S12G21    29.75R
WAYCROSS       CLOUDY    72  70  94 S13       29.77R
JESUP          PTSUNNY   72  70  94 S7        29.77F
BAXLEY         CLOUDY    70  68  94 S16       29.75R
BRUNSWICK      CLOUDY    66  63  88 S9        29.81F
SAINT SIMONS   LGT RAIN  64  63  96 S10G20    29.82R FOG

$$

SCZ027-028-034-036>038-045-046-048>050-GAZ119-141-241400-
...LAKE AND SUPPLEMENTAL COASTAL OBSERVATIONS...

STATION/POSITION TIME  TEMP    WIND        PRES    WAVE   SWELL
                       AIR SEA DIR/SP/G            HT/PER HT/PER/DIR
                 (UTC) (F)     (DEG/KT/KT) (MB)    (FT/S) (FT/S/D)
UPR LAKE MARION  NOT AVBL
WINYAH BAY       1200   67     210/ 16     1009.0S
LAKE MURRAY      1200   51      90/  8/  9 1007.8F
ACE BASIN NERRS  1200   64     160/  2     1009.0S
FORT PULASKI     1300   65 56  190/  8/ 15 1009.5F
SAPELO ISLAND    1200   63     180/ 10     1009.0R

$$

ANZ835-935-AMZ111-154-330-350-352-354-370-450-454-472-241400-
...C-MAN AND BUOY OBSERVATIONS...

STATION/POSITION TIME  TEMP    WIND        PRES    WAVE   SWELL
                       AIR SEA DIR/SP/G            HT/PER HT/PER/DIR
                 (UTC) (F)     (DEG/KT/KT) (MB)    (FT/S) (FT/S/D)
BUOY 41004       1300   76 73  170/ 21/ 25 1009.1F   6/ 7
BUOY 41008       1300   65 60  180/ 17/ 19 1009.1R   5/ 7   2/150/11
FOLLY BEACH CMAN 1200   60     200/  7/  8 1010.1S
CAPERS NEARSHORE 1200   62     190/ 12/ 14   N/A
FRIPP NEARSHORE  NOT AVBL


STATION/POSITION TIME  TEMP    WIND        PRES    WAVE   SWELL
                       AIR SEA DIR/SP/G            HT/PER HT/PER/DIR
                 (UTC) (F)     (DEG/KT/KT) (MB)    (FT/S) (FT/S/D)
5E ST. MARYS GA  1300      60                N/A     5/ 6
FRYING PAN BUOY  1300   73 69  180/ 19/ 27 1011.7R   7/ 6
BUOY 41025       1300   75                 1012.5R   6/ 5
CAPE LOOKOUT NC  1200   63     160/ 13/ 13 1012.0R
BUOY 41002       1210   74 72  190/ 16/ 17 1016.5F   4/ 6   2/ 80/ 9
BUOY 41010       1300   77 77  170/ 17/ 21 1014.4R   5/ 5   2/ 80/ 9
ST AUGUSTINE FL  1300   72     190/ 16/ 18 1011.4R


$$


USA.gov is the U.S. government's official web portal to all federal, state and local government web resources and services.